Poughkeepsie, NY

7:21 PM EDT on May 26, 2017 (GMT -0400)
Dutchess County

Weather History for KPOU - May, 2014

Change the Weather History Date:

Saturday, May 17, 2014

  Actual Average Record
Temperature  
Mean Temperature 60 °F 59 °F  
Max Temperature 69 °F 72 °F 92 °F (2017)
Min Temperature 51 °F 47 °F 31 °F (1956)
Degree Days  
Heating Degree Days 5 7  
Month to date heating degree days 84 151  
Since 1 July heating degree days 6288 6090  
Cooling Degree Days 0 1  
Month to date cooling degree days 12 11  
Year to date cooling degree days 18 16  
Growing Degree Days 10 (Base 50)    
Moisture  
Dew Point 48 °F    
Average Humidity 72    
Maximum Humidity 93    
Minimum Humidity 34    
Precipitation  
Precipitation T in 0.15 in 1.75 in (1991)
Month to date precipitation 1.94 2.23  
Year to date precipitation 13.40 15.32  
Sea Level Pressure  
Sea Level Pressure 29.94 in    
Wind  
Wind Speed 7 mph (WNW)    
Max Wind Speed 14 mph    
Max Gust Speed 22 mph    
Visibility 9 miles    
Events Rain    
T = Trace of Precipitation, MM = Missing Value Source: NWS Daily Summary

Daily Weather History Graph

Daily Weather History Graph

Search for Another Location

Airport or City:

Trip Planner

Search our weather history database for the weather conditions in past years. The results will help you decide how hot, cold, wet, or windy it might be!

Date:

Astronomy

May. 17, 2014 Rise Set
Actual Time 5:34 AM EDT 8:10 PM EDT
Civil Twilight 5:02 AM EDT 8:42 PM EDT
Nautical Twilight 4:22 AM EDT 9:22 PM EDT
Astronomical Twilight 3:37 AM EDT 10:07 PM EDT
Moon 11:08 PM EDT (5/17) 8:14 AM EDT (5/17)
Length of Visible Light 15h 39m
Length of Day
14h 36m
Waning Gibbous, 89% of the Moon is Illuminated
May 17
Waning Gibbous
May 21
Last Quarter
May 28
New
Jun 5
First Quarter
Jun 13
Full

Hourly Weather History & Observations

Time (EDT) Temp. Dew Point Humidity Pressure Visibility Wind Dir Wind Speed Gust Speed Precip Events Conditions
12:02 AM 57.9 °F 55.9 °F 93% 29.81 in 3.0 mi SW 10.4 mph 20.7 mph 0.02 in Rain Light Rain
12:10 AM 57.9 °F 55.9 °F 93% 29.81 in 6.0 mi SW 6.9 mph - 0.03 in Rain Light Rain
12:22 AM 57.9 °F 55.9 °F 93% 29.81 in 10.0 mi SW 10.4 mph - 0.03 in   Overcast
12:33 AM 57.9 °F 55.0 °F 90% 29.82 in 10.0 mi SSW 8.1 mph - 0.03 in   Overcast
12:53 AM 57.9 °F 55.0 °F 90% 29.82 in 10.0 mi Calm Calm - 0.03 in   Mostly Cloudy
1:03 AM 57.9 °F 54.0 °F 87% 29.84 in 10.0 mi SW 8.1 mph - N/A   Mostly Cloudy
1:32 AM 57.0 °F 54.0 °F 89% 29.85 in 10.0 mi SSW 6.9 mph - N/A   Overcast
1:53 AM 57.0 °F 54.0 °F 89% 29.84 in 10.0 mi Calm Calm - N/A   Overcast
2:45 AM 55.9 °F 53.1 °F 90% 29.86 in 10.0 mi SSW 3.5 mph - N/A   Overcast
2:53 AM 55.9 °F 53.1 °F 90% 29.84 in 10.0 mi SW 6.9 mph - N/A   Overcast
3:03 AM 55.9 °F 53.1 °F 90% 29.84 in 10.0 mi West 6.9 mph - N/A   Overcast
3:23 AM 54.0 °F 52.0 °F 93% 29.87 in 6.0 mi NNE 13.8 mph 17.3 mph 0.00 in Rain Light Rain
3:36 AM 53.1 °F 50.0 °F 89% 29.89 in 4.0 mi NNE 12.7 mph - 0.00 in   Overcast
3:53 AM 52.0 °F 50.0 °F 93% 29.87 in 2.5 mi NNE 9.2 mph - 0.00 in   Overcast
4:03 AM 52.0 °F 50.0 °F 93% 29.89 in 4.0 mi NE 6.9 mph - N/A   Overcast
4:29 AM 52.0 °F 48.9 °F 89% 29.91 in 10.0 mi North 4.6 mph - N/A   Overcast
4:53 AM 52.0 °F 48.9 °F 89% 29.89 in 10.0 mi NNW 5.8 mph - N/A   Overcast
5:53 AM 51.1 °F 48.0 °F 89% 29.92 in 10.0 mi NNW 3.5 mph - N/A   Overcast
6:53 AM 51.1 °F 46.9 °F 86% 29.95 in 10.0 mi Calm Calm - N/A   Overcast
7:53 AM 53.1 °F 48.0 °F 83% 29.96 in 10.0 mi NNW 3.5 mph - N/A   Mostly Cloudy
8:25 AM 54.0 °F 46.9 °F 77% 29.99 in 10.0 mi North 5.8 mph - N/A   Mostly Cloudy
8:34 AM 55.0 °F 46.9 °F 74% 29.99 in 10.0 mi North 5.8 mph - N/A   Scattered Clouds
8:53 AM 55.9 °F 48.0 °F 75% 29.99 in 10.0 mi North 4.6 mph - N/A   Mostly Cloudy
9:00 AM 55.0 °F 46.9 °F 74% 29.99 in 10.0 mi NW 5.8 mph - N/A   Mostly Cloudy
9:53 AM 57.9 °F 46.9 °F 67% 29.98 in 10.0 mi Variable 3.5 mph - N/A   Scattered Clouds
10:03 AM 57.9 °F 46.0 °F 65% 29.99 in 10.0 mi West 5.8 mph - N/A   Mostly Cloudy
10:14 AM 57.9 °F 46.9 °F 67% 29.99 in 10.0 mi Calm Calm - N/A   Mostly Cloudy
10:53 AM 59.0 °F 46.0 °F 62% 29.99 in 10.0 mi Calm Calm - N/A   Mostly Cloudy
11:53 AM 63.0 °F 45.0 °F 52% 29.99 in 10.0 mi Variable 5.8 mph - N/A   Scattered Clouds
12:53 PM 64.9 °F 42.1 °F 43% 29.99 in 10.0 mi WSW 9.2 mph - N/A   Clear
1:53 PM 66.0 °F 39.0 °F 37% 29.99 in 10.0 mi WSW 9.2 mph - N/A   Clear
2:53 PM 66.0 °F 39.9 °F 38% 30.00 in 10.0 mi WSW 10.4 mph - N/A   Scattered Clouds
3:53 PM 68.0 °F 42.1 °F 39% 30.00 in 10.0 mi West 12.7 mph 21.9 mph N/A   Scattered Clouds
4:53 PM 68.0 °F 39.0 °F 35% 29.99 in 10.0 mi West 10.4 mph - N/A   Clear
5:53 PM 66.9 °F 37.9 °F 34% 30.00 in 10.0 mi WNW 9.2 mph - N/A   Partly Cloudy
6:53 PM 64.0 °F 37.9 °F 38% 30.01 in 10.0 mi West 6.9 mph - N/A   Scattered Clouds
7:53 PM 62.1 °F 42.1 °F 48% 30.03 in 10.0 mi NNW 6.9 mph - N/A   Partly Cloudy
8:53 PM 59.0 °F 43.0 °F 55% 30.05 in 10.0 mi North 5.8 mph - N/A   Clear
9:53 PM 57.9 °F 43.0 °F 58% 30.09 in 10.0 mi NNE 8.1 mph - N/A   Overcast
10:53 PM 57.0 °F 41.0 °F 55% 30.11 in 10.0 mi NNE 4.6 mph - N/A   Overcast
11:53 PM 55.9 °F 39.9 °F 55% 30.11 in 10.0 mi North 5.8 mph - N/A   Overcast